Location: ??
(35.1714°N, 128.2806°E)
Time: 14:44:38
(UTC+00:00)

Cosmos 1140 Rocket - Pass Details

Date: 29 October 2020
Orbit: 744 x 767 km, 74.1° (Epoch: 01 December)

Event Time Altitude Azimuth Distance (km) Brightness Sun altitude
Rises 20:44:37 0° 198° (SSW) 3,175 6.6 -13.1°
Reaches altitude 10° 20:46:58 10° 199° (SSW) 2,253 5.8 -12.7°
Maximum altitude 20:52:04 81° 287° (WNW) 758 3.4 -11.6°
Drops below altitude 10° 20:57:12 10° 15° (NNE) 2,262 6.0 -10.6°
Sets 20:59:34 0° 17° (NNE) 3,190 6.8 -10.1°
